Swansboro, NC

9:04 AM EDT on May 28, 2017 (GMT -0400)
Bogue McAlf

Weather History for KNJM - January, 2014

Change the Weather History Date:

Sunday, January 12, 2014

  Actual Average (KNKT) Record (KNKT)
Temperature  
Mean Temperature 49 °F -  
Max Temperature 59 °F 53 °F 75 °F (2013)
Min Temperature 37 °F 33 °F 24 °F (1997)
Degree Days  
Heating Degree Days 16    
Moisture  
Dew Point 40 °F    
Average Humidity 68    
Maximum Humidity 93    
Minimum Humidity 35    
Precipitation  
Precipitation 0.00 in - - ()
Sea Level Pressure  
Sea Level Pressure 30.00 in    
Wind  
Wind Speed 6 mph (WNW)    
Max Wind Speed 16 mph    
Max Gust Speed 25 mph    
Visibility 10 miles    
Events Rain    
Averages and records for this station are not official NWS values.
T = Trace of Precipitation, MM = Missing Value Source: NWS Daily Summary

Daily Weather History Graph

Daily Weather History Graph

Search for Another Location

Airport or City:

Trip Planner

Search our weather history database for the weather conditions in past years. The results will help you decide how hot, cold, wet, or windy it might be!

Date:

Astronomy

Jan. 12, 2014 Rise Set
Actual Time 7:15 AM EST 5:17 PM EST
Civil Twilight 6:48 AM EST 5:45 PM EST
Nautical Twilight 6:16 AM EST 6:16 PM EST
Astronomical Twilight 5:46 AM EST 6:46 PM EST
Moon 2:43 PM EST (1/12) 4:13 AM EST (1/12)
Length of Visible Light 10h 57m
Length of Day
10h 02m
Waxing Gibbous, 89% of the Moon is Illuminated
Jan 12
Waxing Gibbous
Jan 15
Full
Jan 24
Last Quarter
Jan 30
New
Feb 6
First Quarter

Hourly Weather History & Observations

Time (EST) Temp. Dew Point Humidity Pressure Visibility Wind Dir Wind Speed Gust Speed Precip Events Conditions
12:15 AM 55.0 °F 53.1 °F 93% 29.71 in 4.0 mi Variable 6.9 mph - N/A   Scattered Clouds
12:26 AM 55.0 °F 53.1 °F 93% 29.71 in 5.0 mi WSW 4.6 mph - N/A   Mostly Cloudy
12:57 AM 55.9 °F 54.0 °F 93% 29.72 in 7.0 mi WSW 4.6 mph - N/A   Scattered Clouds
1:57 AM 59.0 °F 55.0 °F 87% 29.73 in 10.0 mi Variable 5.8 mph - N/A   Overcast
2:57 AM 57.9 °F 53.1 °F 84% 29.76 in 10.0 mi West 8.1 mph - 0.00 in Rain Light Rain
3:57 AM 57.0 °F 50.0 °F 77% 29.75 in 10.0 mi WNW 8.1 mph - 0.00 in   Mostly Cloudy
4:57 AM 55.0 °F 48.0 °F 77% 29.81 in 10.0 mi WNW 6.9 mph - N/A   Clear
5:57 AM 54.0 °F 48.0 °F 80% 29.86 in 10.0 mi West 5.8 mph - N/A   Clear
6:57 AM 52.0 °F 44.1 °F 74% 29.92 in 10.0 mi Variable 6.9 mph - N/A   Clear
7:57 AM 51.1 °F 39.0 °F 63% 29.96 in 10.0 mi NW 10.4 mph 20.7 mph N/A   Clear
8:57 AM 51.1 °F 37.9 °F 61% 30.02 in 10.0 mi NW 10.4 mph 19.6 mph N/A   Clear
9:57 AM 53.1 °F 34.0 °F 48% 30.07 in 10.0 mi NW 16.1 mph 25.3 mph N/A   Clear
10:57 AM 54.0 °F 33.1 °F 45% 30.07 in 10.0 mi WNW 10.4 mph 20.7 mph N/A   Clear
11:57 AM 55.9 °F 30.9 °F 39% 30.07 in 10.0 mi WNW 15.0 mph 23.0 mph N/A   Clear
12:57 PM 55.9 °F 30.0 °F 37% 30.06 in 10.0 mi West 11.5 mph 20.7 mph N/A   Clear
1:57 PM 57.9 °F 30.9 °F 36% 30.07 in 10.0 mi West 9.2 mph 18.4 mph N/A   Clear
2:57 PM 57.9 °F 30.0 °F 35% 30.09 in 10.0 mi WNW 10.4 mph 16.1 mph N/A   Clear
3:57 PM 57.9 °F 30.0 °F 35% 30.12 in 10.0 mi Variable 5.8 mph - N/A   Clear
4:57 PM 55.0 °F 32.0 °F 42% 30.14 in 10.0 mi Calm Calm - N/A   Clear
5:57 PM 46.0 °F 36.0 °F 68% 30.17 in 10.0 mi Calm Calm - N/A   Clear
6:57 PM 44.1 °F 36.0 °F 73% 30.20 in 10.0 mi Calm Calm - N/A   Clear
7:57 PM 42.1 °F 35.1 °F 76% 30.21 in 10.0 mi Calm Calm - N/A   Clear
8:57 PM 39.9 °F 35.1 °F 83% 30.22 in 10.0 mi Calm Calm - N/A   Clear
9:57 PM 39.0 °F 35.1 °F 86% 30.23 in 10.0 mi Calm Calm - N/A   Clear
10:57 PM 39.0 °F 36.0 °F 89% 30.23 in 10.0 mi Calm Calm - N/A   Clear
11:57 PM 37.0 °F 34.0 °F 89% 30.22 in 10.0 mi Calm Calm - N/A   Clear